Location: Buckenweiler
(49.0667°N, 10.2500°E)
Time: 12:13:54
(UTC+00:00)

ATLAS 2AS CENTAUR R/B - Pass Details

Date: 18 January 2026
Orbit: 1050 x 1161 km, 63.7° (Epoch: 16 February)

Event Time Altitude Azimuth Distance (km) Brightness Sun altitude
Exits shadow 03:16:42 39° 29° (NNE) 1,527 3.6 -36.9°
Maximum altitude 03:16:49 39° 31° (NNE) 1,526 3.6 -36.9°
Drops below altitude 10° 03:23:05 10° 99° (E) 2,866 5.6 -35.9°
Sets 03:25:55 0° 107° (ESE) 3,822 6.4 -35.4°
